TimeMDT,TemperatureF,Dew PointF,Humidity,Sea Level PressureIn,VisibilityMPH,Wind Direction,Wind SpeedMPH,Gust SpeedMPH,PrecipitationIn,Events,Conditions,WindDirDegrees,DateUTC
12:53 AM,37.0,32.0,82,30.15,10.0,Calm,Calm,-,N/A,,Clear,0,2013-09-20 06:53:00
1:53 AM,35.1,30.0,82,30.15,10.0,Calm,Calm,-,N/A,,Clear,0,2013-09-20 07:53:00
2:53 AM,35.1,30.0,82,30.15,10.0,Calm,Calm,-,N/A,,Clear,0,2013-09-20 08:53:00
3:53 AM,32.0,28.9,88,30.16,10.0,Calm,Calm,-,N/A,,Clear,0,2013-09-20 09:53:00
4:53 AM,32.0,28.9,88,30.15,10.0,Calm,Calm,-,N/A,,Clear,0,2013-09-20 10:53:00
5:53 AM,37.0,30.0,76,30.14,10.0,Calm,Calm,-,N/A,,Clear,0,2013-09-20 11:53:00
6:53 AM,33.1,28.0,82,30.17,10.0,Calm,Calm,-,N/A,,Clear,0,2013-09-20 12:53:00
7:53 AM,37.0,32.0,82,30.22,10.0,Calm,Calm,-,N/A,,Clear,0,2013-09-20 13:53:00
8:53 AM,45.0,34.0,65,30.21,10.0,Calm,Calm,-,N/A,,Clear,0,2013-09-20 14:53:00
9:53 AM,55.9,32.0,40,30.16,10.0,ENE,8.1,-,N/A,,Clear,70,2013-09-20 15:53:00
10:53 AM,62.1,32.0,32,30.13,10.0,East,8.1,-,N/A,,Clear,80,2013-09-20 16:53:00
11:53 AM,66.9,30.9,26,30.10,10.0,Variable,3.5,-,N/A,,Clear,0,2013-09-20 17:53:00
12:53 PM,68.0,28.9,23,30.08,10.0,Calm,Calm,-,N/A,,Clear,0,2013-09-20 18:53:00
1:53 PM,71.1,28.9,21,30.05,10.0,WNW,8.1,-,N/A,,Clear,290,2013-09-20 19:53:00
2:53 PM,75.0,30.0,19,30.01,10.0,NW,8.1,-,N/A,,Clear,310,2013-09-20 20:53:00
3:53 PM,75.0,28.0,18,30.00,10.0,WNW,9.2,-,N/A,,Clear,300,2013-09-20 21:53:00
4:53 PM,75.0,27.0,17,29.98,10.0,Variable,5.8,-,N/A,,Clear,0,2013-09-20 22:53:00
5:53 PM,73.9,26.1,17,29.95,10.0,WSW,8.1,-,N/A,,Clear,250,2013-09-20 23:53:00
6:53 PM,64.9,30.0,27,30.00,10.0,SW,5.8,-,N/A,,Clear,230,2013-09-21 00:53:00
7:53 PM,57.9,27.0,31,30.03,10.0,Variable,3.5,-,N/A,,Clear,0,2013-09-21 01:53:00
8:53 PM,53.1,30.9,43,30.04,10.0,East,3.5,-,N/A,,Clear,90,2013-09-21 02:53:00
9:53 PM,50.0,30.9,48,30.01,10.0,East,4.6,-,N/A,,Clear,100,2013-09-21 03:53:00
10:53 PM,44.1,34.0,68,30.02,10.0,ESE,3.5,-,N/A,,Clear,120,2013-09-21 04:53:00
11:53 PM,43.0,35.1,74,30.00,10.0,Calm,Calm,-,N/A,,Clear,0,2013-09-21 05:53:00